When you browse on this site, cookies collect data to enhance your experience and personalize the content and advertising you see.
Visit our Privacy Policy to learn more. By continuing to use the site, you agree to this use of cookies and data.
  • In United Kingdom
  • List of Countries
  • For 7 days
  • Water Temperature
  • Satellite Maps
  • Weather Map
  • Weather Widgets
  • user-avatar
    Login

    Hourly Weather Pykovets'

    Today, 21 June, Friday

    Time Temperature Precipitation Wind Pressure Humidity
    00:00 +20°C° 0 mm 2 mps 736 mmHg 90%
    01:00 +20°C° 0 mm 2 mps 736 mmHg 90%
    02:00 +19°C° 0 mm 2 mps 736 mmHg 89%
    03:00 +19°C° 0 mm 2 mps 736 mmHg 89%
    04:00 +19°C° 0 mm 2 mps 736 mmHg 89%
    05:00 +19°C° 0 mm 2 mps 736 mmHg 90%
    06:00 +21°C° 0 mm 2 mps 737 mmHg 86%
    07:00 +23°C° 0 mm 2 mps 737 mmHg 81%
    08:00 +25°C° 0 mm 2 mps 737 mmHg 77%
    09:00 +26°C° 0.1 mm 3 mps 737 mmHg 73%
    10:00 +27°C° 0.1 mm 3 mps 737 mmHg 68%
    11:00 +28°C° 0.1 mm 3 mps 737 mmHg 64%
    12:00 +29°C° 0.2 mm 3 mps 737 mmHg 63%
    13:00 +29°C° 0.2 mm 3 mps 737 mmHg 63%
    14:00 +29°C° 0.2 mm 4 mps 737 mmHg 62%
    15:00 +29°C° 0.1 mm 3 mps 737 mmHg 64%
    16:00 +29°C° 0.1 mm 3 mps 736 mmHg 66%
    17:00 +28°C° 0.1 mm 2 mps 736 mmHg 68%
    18:00 +27°C° 0.3 mm 2 mps 736 mmHg 71%
    19:00 +25°C° 0.3 mm 2 mps 736 mmHg 75%
    20:00 +23°C° 0.3 mm 2 mps 736 mmHg 79%
    21:00 +23°C° 0 mm 2 mps 736 mmHg 79%
    22:00 +21°C° 0 mm 2 mps 737 mmHg 79%
    23:00 +20°C° 0 mm 3 mps 737 mmHg 80%

    Tomorrow, 22 June, Saturday

    Time Temperature Precipitation Wind Pressure Humidity
    00:00 +19°C° 0 mm 2 mps 737 mmHg 81%
    01:00 +19°C° 0 mm 2 mps 737 mmHg 82%
    02:00 +19°C° 0 mm 2 mps 737 mmHg 83%
    03:00 +19°C° 0 mm 2 mps 737 mmHg 83%
    04:00 +19°C° 0 mm 2 mps 737 mmHg 83%
    05:00 +19°C° 0 mm 2 mps 737 mmHg 83%
    06:00 +20°C° 0 mm 2 mps 737 mmHg 79%
    07:00 +23°C° 0 mm 2 mps 738 mmHg 76%
    08:00 +25°C° 0 mm 2 mps 738 mmHg 72%
    09:00 +26°C° 0 mm 2 mps 738 mmHg 69%
    10:00 +28°C° 0 mm 3 mps 738 mmHg 65%
    11:00 +29°C° 0 mm 3 mps 738 mmHg 61%
    12:00 +29°C° 0 mm 3 mps 738 mmHg 59%
    13:00 +30°C° 0 mm 3 mps 738 mmHg 57%
    14:00 +30°C° 0 mm 3 mps 738 mmHg 55%
    15:00 +30°C° 0 mm 3 mps 737 mmHg 58%
    16:00 +30°C° 0 mm 2 mps 737 mmHg 60%
    17:00 +29°C° 0 mm 2 mps 737 mmHg 62%
    18:00 +27°C° 0.1 mm 2 mps 737 mmHg 66%
    19:00 +25°C° 0.1 mm 2 mps 737 mmHg 71%
    20:00 +24°C° 0.1 mm 2 mps 737 mmHg 76%
    21:00 +23°C° 0 mm 2 mps 737 mmHg 77%
    22:00 +21°C° 0 mm 2 mps 737 mmHg 78%
    23:00 +21°C° 0 mm 2 mps 737 mmHg 79%

    Day after tomorrow, 23 June, Sunday

    Time Temperature Precipitation Wind Pressure Humidity
    00:00 +20°C° 0 mm 2 mps 737 mmHg 81%
    01:00 +20°C° 0 mm 2 mps 737 mmHg 82%
    02:00 +19°C° 0 mm 2 mps 737 mmHg 84%
    03:00 +19°C° 0 mm 2 mps 737 mmHg 85%
    04:00 +19°C° 0 mm 2 mps 737 mmHg 85%
    05:00 +19°C° 0 mm 2 mps 737 mmHg 86%
    06:00 +21°C° 0 mm 2 mps 738 mmHg 82%
    07:00 +24°C° 0 mm 2 mps 738 mmHg 79%
    08:00 +25°C° 0 mm 2 mps 738 mmHg 75%
    09:00 +26°C° 0.7 mm 2 mps 738 mmHg 71%
    10:00 +27°C° 0.7 mm 3 mps 738 mmHg 67%
    11:00 +28°C° 0.7 mm 3 mps 738 mmHg 63%
    12:00 +29°C° 0.6 mm 3 mps 738 mmHg 62%
    13:00 +29°C° 0.6 mm 3 mps 738 mmHg 62%
    14:00 +29°C° 0.6 mm 3 mps 738 mmHg 61%
    15:00 +29°C° 0.4 mm 3 mps 738 mmHg 63%
    16:00 +29°C° 0.4 mm 2 mps 738 mmHg 66%
    17:00 +29°C° 0.4 mm 2 mps 738 mmHg 68%
    18:00 +27°C° 0.7 mm 2 mps 738 mmHg 71%
    19:00 +25°C° 0.7 mm 1 mps 738 mmHg 75%
    20:00 +24°C° 0.7 mm 1 mps 738 mmHg 79%
    21:00 +23°C° 0 mm 1 mps 738 mmHg 81%
    22:00 +21°C° 0 mm 2 mps 738 mmHg 83%
    23:00 +20°C° 0 mm 2 mps 739 mmHg 85%

    24 June, Monday

    Time Temperature Precipitation Wind Pressure Humidity
    00:00 +20°C° 0 mm 2 mps 739 mmHg 86%
    01:00 +19°C° 0 mm 2 mps 739 mmHg 86%
    02:00 +18°C° 0 mm 2 mps 739 mmHg 86%
    03:00 +18°C° 0 mm 2 mps 739 mmHg 87%
    04:00 +18°C° 0 mm 2 mps 739 mmHg 87%
    05:00 +18°C° 0 mm 2 mps 739 mmHg 88%
    06:00 +20°C° 0 mm 2 mps 740 mmHg 84%
    07:00 +22°C° 0 mm 3 mps 740 mmHg 81%
    08:00 +25°C° 0 mm 3 mps 741 mmHg 78%
    09:00 +26°C° 0 mm 3 mps 741 mmHg 72%
    10:00 +27°C° 0 mm 4 mps 741 mmHg 67%
    11:00 +28°C° 0 mm 4 mps 741 mmHg 61%
    12:00 +29°C° 0.1 mm 4 mps 741 mmHg 61%
    13:00 +29°C° 0.1 mm 4 mps 741 mmHg 61%
    14:00 +29°C° 0.1 mm 4 mps 741 mmHg 61%
    15:00 +28°C° 0.5 mm 4 mps 741 mmHg 66%
    16:00 +28°C° 0.5 mm 4 mps 741 mmHg 71%
    17:00 +27°C° 0.5 mm 4 mps 741 mmHg 76%
    18:00 +26°C° 0.1 mm 3 mps 741 mmHg 80%
    19:00 +24°C° 0.1 mm 3 mps 741 mmHg 85%
    20:00 +22°C° 0.1 mm 3 mps 741 mmHg 89%
    21:00 +21°C° 0 mm 3 mps 742 mmHg 91%
    22:00 +21°C° 0 mm 3 mps 742 mmHg 93%
    23:00 +20°C° 0 mm 3 mps 742 mmHg 95%

    25 June, Tuesday

    Time Temperature Precipitation Wind Pressure Humidity
    00:00 +20°C° 0 mm 3 mps 742 mmHg 96%
    01:00 +20°C° 0 mm 3 mps 743 mmHg 96%
    02:00 +19°C° 0 mm 3 mps 743 mmHg 97%
    03:00 +19°C° 0 mm 3 mps 743 mmHg 97%
    04:00 +19°C° 0 mm 4 mps 743 mmHg 97%
    05:00 +19°C° 0 mm 4 mps 743 mmHg 97%
    06:00 +20°C° 0 mm 4 mps 743 mmHg 94%
    07:00 +21°C° 0 mm 4 mps 743 mmHg 91%
    08:00 +21°C° 0 mm 4 mps 744 mmHg 88%
    09:00 +22°C° 0 mm 4 mps 744 mmHg 83%
    10:00 +23°C° 0 mm 5 mps 744 mmHg 78%
    11:00 +25°C° 0 mm 5 mps 744 mmHg 73%
    12:00 +26°C° 0 mm 5 mps 744 mmHg 70%
    13:00 +26°C° 0 mm 5 mps 744 mmHg 68%
    14:00 +26°C° 0 mm 5 mps 744 mmHg 65%
    15:00 +26°C° 0 mm 4 mps 744 mmHg 66%
    16:00 +26°C° 0 mm 4 mps 744 mmHg 66%
    17:00 +25°C° 0 mm 4 mps 744 mmHg 66%
    18:00 +22°C° 0 mm 3 mps 744 mmHg 71%
    19:00 +21°C° 0 mm 3 mps 743 mmHg 75%
    20:00 +19°C° 0 mm 2 mps 743 mmHg 80%
    21:00 +18°C° 0 mm 2 mps 744 mmHg 82%
    22:00 +18°C° 0 mm 1 mps 744 mmHg 84%
    23:00 +16°C° 0 mm 1 mps 744 mmHg 86%

    26 June, Wednesday

    Time Temperature Precipitation Wind Pressure Humidity
    00:00 +16°C° 0 mm 1 mps 743 mmHg 87%
    01:00 +16°C° 0 mm 1 mps 743 mmHg 88%
    02:00 +15°C° 0 mm 1 mps 743 mmHg 89%
    03:00 +16°C° 0 mm 1 mps 743 mmHg 89%
    04:00 +16°C° 0 mm 1 mps 743 mmHg 89%
    05:00 +16°C° 0 mm 1 mps 743 mmHg 90%
    06:00 +19°C° 0 mm 1 mps 743 mmHg 84%
    07:00 +20°C° 0 mm 1 mps 743 mmHg 79%
    08:00 +21°C° 0 mm 2 mps 743 mmHg 74%
    09:00 +23°C° 0 mm 2 mps 742 mmHg 70%
    10:00 +24°C° 0 mm 3 mps 742 mmHg 67%
    11:00 +25°C° 0 mm 3 mps 742 mmHg 63%
    12:00 +25°C° 0 mm 3 mps 742 mmHg 61%
    13:00 +25°C° 0 mm 3 mps 741 mmHg 59%
    14:00 +26°C° 0 mm 3 mps 741 mmHg 58%
    15:00 +25°C° 0 mm 4 mps 741 mmHg 61%
    16:00 +25°C° 0 mm 4 mps 740 mmHg 64%
    17:00 +23°C° 0 mm 4 mps 740 mmHg 67%
    18:00 +22°C° 0.1 mm 3 mps 740 mmHg 73%
    19:00 +20°C° 0.1 mm 3 mps 740 mmHg 80%
    20:00 +19°C° 0.1 mm 2 mps 739 mmHg 86%
    21:00 +18°C° 0 mm 2 mps 740 mmHg 87%
    22:00 +17°C° 0 mm 2 mps 740 mmHg 88%
    23:00 +16°C° 0 mm 2 mps 740 mmHg 89%
    Show more